Location: Newark
(47.7394°N, 8.0008°E)
Time: 06:14:23
(UTC+00:00)

N. Korean satellite - Pass Details

Date: 23 December 2019
Orbit: 454 x 508 km, 97.2° (Epoch: 20 January)

Event Time Altitude Azimuth Distance (km) Brightness Sun altitude
Rises 16:20:28 0° 165° (SSE) 2,574 10.4 -6.8°
Reaches altitude 10° 16:22:33 10° 165° (SSE) 1,688 9.5 -7.1°
Maximum altitude 16:26:11 86° 75° (ENE) 497 6.6 -7.6°
Drops below altitude 10° 16:29:47 10° 348° (NNW) 1,673 9.1 -8.1°
Sets 16:31:51 0° 348° (NNW) 2,548 10.1 -8.5°
